CamptonHillsWeather.com

Find the Weather for any City, State  
or Zipcode, or Country:

Campton Hills, IL Weather
Local Radar

Local Radar

Graphs, Details
Graphs and Gauges
Detailed Weather
Detailed Reports
Ajax Version (old)
Central Kane Co Summary
Davis Current Weather Graphs
Davis 24 Hour Weather History

CW3778 Data

Weather Underground
Maps
Temperature
Heat Index
Windchill
Humidity
Radar
Dew Point
Wind
Visibility
Visible Satellite
Satellite
Fronts
Snow Depth
Jet Stream
Flight Rules
Forecast Maps
Temperature Forecast
Maximum Temperature Forecast
Minimum Temperature Forecast
Dewpoint Forecast
Prevalent Weather
12Hr Probability of Precip.
Sky Cover
Health Maps
UV Forecast
Air Quality
Peak Air Quality Index
Weather Station
Davis Instruments Vantage Pro
Current Conditions [Select Refresh to Update]

Updated: 2:47am on 8/1/14

(location)
Currently:
60.6F

Clear
Clear

High: 62.9 F< 
(12:00am
Low: 60.6 F 
(2:42am)
Wind: W 0 mph
Calm
Gust: 0 mph
Today's High Wind: 0 mph (12:00am)
Humidity: 90%
Pressure: 30.04 in  (Steady
Pressure Rate: 0.005 in/hr
Dew Point: 57.7F
Wind Chill: 60.6 F
Heat Index (feels like): 66.2 F
Comfort Level: Comfortable
Temperature Rate:  -1.03F/hr
 
5 Day Forecast
 
Fri Sat Sun Mon Tue
Clear Clear Clear Clear Clear
Chance T-storms T-storms Partly Cloudy Chance T-storms Chance T-storms
82 82 82 82 82
55 59 61 64 64

Records and Normals
 
Temperature Forecast Normal Record
High 82 84 96
(2006)
Low 55 62 51
(1998)
 
Links
 
 
Weather Advisories
No Advisories
Full Advisory Text...
Weather Map

Web Cam

Almanac
 
Sunrise:  
5:49am
Moonrise: 
11:17am

Moon Phase:
17%

Sunset: 
8:14pm
Moonset:  
10:50pm
 Star Chart...
Rainfall Totals
Hourly Rain 0.00 in
Daily Rain: 0.00 in
Monthly Rain: 0.00 in
Yearly Rain: 21.34 in
Normal Rain, month to date: 2.18 in
Normal Rain, year to date: 16.76 in
Link to Village of Campton Hills Map

Link to Counties of Illinois Map

Local Weather Exchange Network
Station ID City 
(Click for Map Location)
Neighborhood 
(Click for History)
Last Update (Date & Time) Temperature
 ()
Dew
Point ()
Humidity 
(%)
Wind 
(mph)
from the Wind Gust 
(mph) 
Pressure(in) Hourly
Rain(in)
KILSOUTH6 South Elgin Thornwood 08/01 00:07:23 60.3 57.0 89 0 West 0 29.93 0.00
KILCAMPT3 Campton Hills Campton Hills 08/01 02:42:29 59.5 60.0 100 0 West 0 30.04 0.00
KILGENEV6 Geneva Dover Ridge 08/01 02:42:30 61.9 60.0 93 0 West 0 30.01 0.00
KILSTCHA8 St. Charles Ronzheimer Ave. & S. Tyler Rd. 08/01 02:42:29 62.1 60.0 93 1 WSW 1 30.00 0.00
KILGENEV3 Geneva Mill Creek (NE) 08/01 02:42:25 58.3 56.0 94 0 WSW 0 30.05 0.00
KILSTCHA1 St Charles CamptonHillsWeather.com Central Kane County 08/01 02:42:22 60.6 58.0 90 0 West 0 30.04 0.00
KILELGIN13 Elgin Creek Side 08/01 02:42:29 59.4 55.0 86 0 WSW 0 29.15 0.00
KILSOUTH5 South Elgin Concord Park 08/01 02:33:39 59.7 59.0 99 0 SSW 0 29.82 0.00
KILGENEV2 Geneva Mill Creek 08/01 02:39:08 60.7 60.0 96 0 SW 1 29.99 0.00
KILELBUR7 Elburn Cheval-De-Selle 08/01 02:41:01 56.3 55.0 95 0 NNW 0 29.98 0.00
KILBATAV1 Batavia Tri-Cities on the Fox River 08/01 02:42:11 63.1 60.0 89 0 SSW 0 30.07 0.00
KILELBUR5 Elburn Prairie Highlands 08/01 02:40:16 63.7 60.0 86 0 North 0 30.02 0.00
KILBATAV3 Batavia West Batavia 08/01 02:41:00 60.7 59.0 94 0 WSW 0 30.00 0.00
KILELBUR6 Elburn Columbine Square 08/01 02:39:14 58.8 57.0 95 0 SW 0 29.98 0.00
KILBATAV5 Batavia Fermi National Accelerator Laboratory 08/01 02:37:09 64.3 61.0 88 0 WSW 0 29.98 0.00
KILWESTC5 West Chicago THEBROWNHOUSE.ORG 08/01 02:42:29 57.8 56.0 92 0 SW 0 30.04 0.00
KILWESTC8 West Chicago Ingalton Hills Estates 08/01 02:42:21 60.0 59.0 98 0 SSW 0 30.15 0.00
KILBARTL1 Bartlett Amber Grove KC9TVS 08/01 02:29:15 63.3 43.0 47 0 WSW 0 30.08 0.00
KILNORTH11 North Aurora Waterford Oaks 08/01 02:42:29 62.1 61.0 95 0 SW 0 30.03 0.00
KILELGIN10 Elgin Wing Park 08/01 02:41:57 61.3 56.0 84 1 South 0 29.24 0.00
KILELGIN14 Elgin Elgin, IL 08/01 02:42:25 61.3 57.0 87 0 NW 0 30.00 0.00
KILCAROL5 Carol Stream Stonehenge Court 08/01 02:40:04 62.2 44.0 52 0 SW 0 30.02 0.00
KILGILBE2 Gilberts Gilberts, IL 08/01 02:42:17 60.4 57.0 87 0 SW 1 30.26 0.00
KILELGIN11 Elgin Trout Park 08/01 01:42:08 63.3 58.0 82 0 East 0 30.06 0.00
KILWINFI3 Winfield Fredericksburg Farm 08/01 02:42:16 58.6 57.0 95 0 SW 0 29.95 0.00
KILWINFI2 Winfield Winfield Heights (SarahNet) 08/01 02:30:45 62.9 59.0 88 0 WSW 0 30.02 0.00
KILSLEEP3 Sleepy Hollow SLEEPY HOLLOW 08/01 02:42:21 61.6 55.0 80 0 West 0 29.59 0.00
KILCAROL6 Carol Stream Merbach Ct 08/01 02:42:15 61.5 59.0 91 0 SE 0 30.00 0.00
KILSLEEP2 Sleepy Hollow Sleepy Hollow Manor 08/01 02:36:26 57.7 54.0 89 0 NNW 0 29.96 0.00
KILWARRE2 Warrenville meso_neigh30 08/01 02:42:29 60.4 59.0 95 0 West 0 30.01 0.00
KILHANOV2 Hanover Park meso_neigh31 08/01 02:41:44 61.5 60.0 96 0 West 0 30.05 0.00
KILWHEAT8 Wheaton Wheaton Sanitary District 08/01 02:34:43 61.9 60.0 93 0 SW 0 30.03 0.00
KILWARRE4 Warrenville Cerny Park 08/01 02:40:08 63.0 63.0 99 0 East 0 30.21 0.00
KILWHEAT5 Wheaton N9ABF - West Wheaton 08/01 02:30:19 62.2 58.0 87 0 West 0 30.03 0.00
KILSCHAU9 Schaumburg Schaumburg West 08/01 02:42:17 60.8 60.0 99 0 North 0 30.02 0.00
KILEASTD2 East Dundee Rock Road Industrial Park 08/01 02:38:50 64.0 57.0 78 1 SSW 6 30.05 0.00
KILCARPE6 Carpentersville Carpentersville 08/01 02:42:22 60.1 58.0 91 0 NNW 0 29.18 0.00
KILWHEAT11 Wheaton Wheaton SW Orth Ct 08/01 02:42:28 63.7 57.0 80 0 East 0 30.16 0.00
KILNAPER19 Naperville Brookdale Lakes 08/01 02:42:22 64.9 62.0 89 0 NW 0 30.01 0.00
KILCARPE5 Carpentersville Cville WWTF 08/01 02:36:35 63.5 60.0 87 0 SW 0 30.02 0.00
Full Advisory Text
No Warnings

Ambient Weather and Weather Underground
 Never base important decisions on this or any weather information obtained from the Internet
Updated Automatically by Ambient Weather's Virtual Weather Station  V13.01